logo
Search for airport 
image banner adimage banner adimage banner ad
image banner ad

LOLT - Seitenstetten

Located in District Amstetten, Austria

ICAO - LOLT, IATA -

Data provided by Airmate  

General information

Coordinates: N48°3'2" E14°39'43"
Elevation is 1050 feet MSL.
Magnetic variation is 5° East
Rated:
View ratings:
[VIEW]
View others Airports in Lower Austria

Operational data

Special qualification required
Current time UTC:
Current local time:
Weather at : LOWL - Linz ( 41 km )
METAR: LOWL 130220Z AUTO 24007KT 9999 -DZ FEW022 OVC050 17/16 Q1014
TAF: TAF LOWL 122315Z 1300/1324 28010KT 9999 FEW020 SCT050 TX23/1314Z TN18/1324Z TEMPO 1300/1302 29020G35KT 2000 +TSRA SCT005 BKN010 BKN020CB PROB30 TEMPO 1302/1306 SHRA BKN014 FEW020CB PROB30 TEMPO 1314/1318 TSRA SCT040CB BKN050 TEMPO 1320/1324 VRB02KT
View NOTAMs / SUP AIP / TFR affecting this airport [VIEW]
Communications frequencies: [VIEW]

Runways:

RWY identifierQFULength (ft)Width (ft)SurfaceLDA (ft)
10272382GRASS
28272382GRASS

Airport contact information

Address: District Amstetten Austria

Other aviation service providers

Aviation club (not for profit)

Flugunion Seitenstetten-Biberbach

Flugunion Seitenstetten-Biberbach
Rated:
View ratings:
[VIEW]

Satellite view of LOLT